Reflectivity
-20 -20 -20 -20 -20 -20 -20 -14 9 -20 -0 -20 4 -6 18 9 8 23 -20 25 25 22 -11 -20 -20 -20 -20 -20 -20 -20 -4 -20 -20 -20 -9 2 9 17 16 5 2 7 -20 -19 -3 6 -20 -20 7 -6 -20 -20 2 -20
-20 -20 -20 -20 -20 -20 11 14 11 -18 11 -19 -3 9 18 -18 2 20 5 -19 21 -3 -16 -20 -20 -20 -20 -20 -20 -20 -19 -20 -20 -20 -20 -20 -20 -20 -2 -2 13 18 19 21 -20 -20 -20 0 12 2 -12 -20 -19 -20
-18 -20 -20 -16 -20 -20 -20 -15 12 -20 12 -19 -8 7 -20 -20 17 22 22 19 -2 -19 -20 -20 -20 -20 -20 -20 -20 -4 -2 -17 -4 -18 -20 -12 -14 -12 5 7 -0 -18 2 3 -12 -19 -19 -20 -20 -20 -20 -20 -20 -20
1 -3 3 3 -20 -20 10 6 -20 6 -20 -20 -20 -18 -20 17 16 16 11 19 -3 4 -20 -20 -20 -20 -20 -20 -14 5 -14 13 10 8 12 -4 13 1 14 8 -12 -6 -20 -20 -20 -2 6 -20 -20 4 -7 -20 -20 -20
4 3 -3 -20 -20 8 3 -20 2 -18 -20 -20 -20 6 15 -11 -10 -8 -20 5 9 2 -20 -20 -20 -20 -20 -14 -6 14 19 16 21 18 8 -5 -8 7 -13 -0 -1 -18 -20 -18 -20 -19 -18 -20 -4 10 -11 -20 -20 -20
2 -1 -20 -20 4 3 -20 -20 -10 -20 -20 -10 4 6 -20 2 -3 -20 -20 -20 -20 1 -20 -20 -20 -20 -20 -20 14 2 8 20 13 3 8 12 9 15 13 -18 -10 -12 -20 -20 -20 -20 -20 -20 -10 5 -20 -20 -20 -20
-0 -2 -1 3 1 -20 -20 -20 -20 -18 -20 -20 -5 -19 -19 -12 -8 -12 -18 -20 -20 -20 -20 -20 -20 -20 -20 -20 -20 2 -0 11 16 16 10 13 10 9 1 -16 -7 2 10 -17 -15 -20 -20 -14 6 -20 -20 -20 -20 -20
-2 3 2 -3 -20 -20 -20 -20 -20 -13 -20 -20 -20 -20 -20 -20 -20 -20 -20 22 -10 -20 -20 -20 -20 -20 -20 -20 -17 -20 9 0 4 3 4 -1 -9 2 7 12 13 7 14 8 8 18 15 6 -18 -6 -20 -20 -20 -20
4 1 -7 -20 -20 -20 -20 -20 -20 -20 -20 -20 -20 -20 -20 -20 -20 -20 15 4 -5 -7 -20 -3 -10 -16 -20 -11 -1 15 -12 -18 -1 7 -9 -5 1 3 17 16 15 9 17 11 18 18 16 9 -15 -4 -20 -7 -20 -6
0 -5 -19 -20 -20 -20 -20 -20 -20 -20 -20 -20 -20 -20 -20 -20 -20 -12 -18 -20 -20 -20 -20 -8 -20 -20 -10 -17 -20 5 -20 4 1 4 -11 -3 15 18 23 17 19 16 16 23 16 19 17 -11 -20 -15 2 16 1 -16
-0 -1 -19 -20 -20 -20 -20 -20 -20 -20 -20 -20 -20 -20 -20 -20 -20 -20 -20 -20 -20 -20 -20 -20 -20 -11 -18 -7 -19 3 -20 -15 -5 2 -1 -1 6 18 20 13 18 21 12 20 26 11 4 -1 4 6 8 -2 -3 -15
-2 -6 -20 -20 -20 -20 -20 -20 -20 -20 -20 -20 -20 -20 -20 -20 -20 -20 -20 -20 -20 -20 -20 -20 -20 -20 -18 -20 -12 -20 -20 -20 -12 -19 -18 -0 17 20 15 18 18 23 20 18 11 10 6 8 7 -6 -18 -20 -20 -20
-3 -20 -20 -20 -20 -20 -20 -20 -20 -20 -20 -20 -20 -20 -20 -20 -20 -20 -20 -20 -20 -20 -20 -20 -20 -20 -20 -17 -20 -20 -20 -20 -20 -20 -6 12 20 20 20 19 20 19 15 15 17 19 16 16 13 12 12 14 13 11
-20 -20 -20 -20 -20 -20 -20 -20 -20 -20 -20 -20 -20 -20 -20 -20 -20 -20 -20 -20 -20 -20 -20 -20 -20 -5 -20 -20 -20 -20 -20 -20 -20 -20 1 13 16 16 15 19 12 15 16 16 18 17 14 11 7 7 4 1 5 6
-0 -20 -20 -20 -20 -20 -20 -20 -20 -20 -20 -20 -20 -20 -20 -20 -20 -20 -20 -20 -20 -20 -18 -20 -20 -9 -20 -20 -20 -20 -20 -20 -20 -20 -6 14 8 3 -10 -4 5 6 10 9 8 9 6 2 -0 -1 -4 -1 -1 0
-20 -20 -20 -20 -20 -20 -20 -20 -20 -20 -20 -20 -20 -20 -20 -20 -20 -20 -20 -20 -20 -12 -20 -20 -20 -20 -20 -20 -20 -20 -20 -20 -20 -19 6 -3 -20 -10 -13 -20 -20 -20 -18 -13 -8 -11 -6 -8 -20 -20 -20 -20 -20 -20
-20 -20 -20 -20 -20 -20 -20 -20 -20 -20 -20 -20 -20 -20 -20 -20 -19 -20 -20 -20 -20 -20 -17 -20 -20 -20 -20 -20 -20 -20 -20 -20 -20 -20 1 -14 -20 -20 -20 -20 -20 -20 -20 -20 -20 -20 -20 -20 -20 -20 -20 -20 -20 -20
-20 -20 -20 -20 -20 -20 -20 -20 -20 -20 -20 -20 -20 -20 -20 -9 -20 -20 -20 -20 -20 -20 -20 -20 -20 -20 -20 -20 -17 -6 -20 -19 -20 -20 -20 -20 -20 -20 -20 -20 -20 -20 -20 -20 -20 -20 -20 -20 -20 -20 -20 -20 -20 -20
-20 -20 -20 -20 -20 -20 -20 -20 -20 -20 -20 -20 -9 -20 -20 -20 -20 -20 -20 -20 -20 -20 -20 -20 -20 -20 -9 -1 5 4 -3 -15 -20 -20 -20 -20 -20 -20 -20 -20 -20 -20 -20 -20 -20 -20 -20 -20 -20 -20 -20 -20 -20 -20
-20 -20 -20 -20 -20 -20 -20 -20 -20 -20 -20 -20 -20 -20 -2 3 -20 -20 -20 -20 -20 -20 -20 -20 -6 -1 5 8 12 12 0 -19 -20 -20 -20 -20 -20 -20 -20 -20 -20 -20 -20 -20 -20 -20 -20 -20 -20 -20 -10 -20 -20 -20
-20 -20 -20 -20 -20 -20 -20 -20 -20 -20 -20 -20 -20 -12 -1 -20 -20 -20 -20 -20 -20 -20 -3 7 10 9 11 12 3 -20 -20 -20 -20 -20 -20 -20 -20 -20 -20 -20 -20 -20 -20 -20 -20 -20 -20 -20 -20 -20 -20 -20 -20 -20
-20 -20 -20 -20 -20 -20 -20 -20 -20 -20 -20 -20 -20 -20 -20 -20 -10 5 7 -7 -10 -9 5 8 4 6 2 -19 -20 -20 -20 -20 -20 -19 -20 -20 -20 -20 -20 -20 -20 -20 -20 -20 -20 -20 -20 -20 -20 -20 -20 -20 -20 -20
-20 -20 -20 -20 -20 -20 -20 -20 -20 -20 -20 -20 -20 -20 -17 -20 -18 -16 -20 -20 -20 -3 2 -8 -13 -15 -16 -20 -20 -20 -20 -20 -20 -20 -20 -20 -20 -20 -20 -20 -20 -20 -20 -20 -20 -20 -20 -14 -19 -20 -20 -20 -20 -20
-20 -20 -20 -20 -20 -20 -20 -20 -20 -20 -20 -20 -20 -20 -20 -18 -12 -14 -20 -20 -20 -20 -20 -20 -20 -20 -20 -20 -20 -20 -20 -20 -20 -20 -20 -20 -20 -20 -20 -20 -20 -20 -20 -20 -20 -20 -20 -20 -18 -20 -20 -20 -20 -20
-20 -20 -20 -20 -20 -20 -20 -20 -20 -20 -20 -20 -20 -20 -20 -20 -20 -20 -20 -20 -20 -20 -20 -20 -20 -20 -20 -20 -20 -20 -20 -20 -20 -20 -20 -20 -20 -20 -20 -20 -20 -20 -20 -20 -20 -20 -20 -20 -20 -20 -20 -20 -20 -20
-20 -20 -20 -20 -20 -20 -20 -20 -20 -20 -20 -20 -20 -20 -20 -20 -20 -20 -20 -20 -20 -20 -20 -20 -20 -20 -20 -20 -20 -20 -20 -20 -20 -20 -20 -20 -20 -20 -20 -20 -20 -20 -20 -20 -20 -20 -20 -20 -20 -20 -20 -20 -10 -20
-20 -20 -20 -20 -20 -20 -20 -20 -20 -20 -20 -20 -20 -20 -20 -20 -20 -20 -20 -20 -20 -20 -20 -20 -20 -20 -20 -20 -20 -20 -20 -20 -20 -20 -20 -20 -20 -20 -20 -20 -20 -20 -20 -20 -20 -20 -20 -20 -20 -20 -20 -20 -20 -20
-20 -20 -20 -20 -20 -20 -20 -20 -20 -20 -20 -20 -20 -20 -20 -20 -20 -20 -20 -20 -20 -20 -20 -20 -20 -20 -20 -20 -20 -20 -20 -20 -20 -20 -20 -20 -20 -20 -20 -20 -20 -15 -20 -20 -20 -20 -20 -20 -20 -20 -20 -20 -20 -20
-20 -20 -20 -20 -20 -20 -20 -20 -20 -20 -20 -20 -20 -20 -20 -20 -20 -20 -20 -20 -20 -20 -20 -20 -20 -20 -20 -20 -20 -20 -20 -20 -20 -20 -20 -20 -20 -20 -20 -20 -20 -20 -20 -20 -20 -20 -18 -15 -20 -20 -20 -20 -20 -20
-20 -20 -20 -20 -20 -20 -20 -20 -20 -20 -20 -20 -20 -20 -20 -20 -20 -20 -20 -20 -20 -20 -20 -20 -20 -20 -20 -20 -20 -20 -20 -20 -20 -20 -20 -20 -20 -20 -20 -20 -20 -20 -20 -20 -20 -20 -20 -20 -20 -20 -20 -20 -20 -20
-20 -20 -20 -20 -20 -20 -20 -20 -20 -20 -20 -20 -20 -20 -20 -20 -20 -20 -20 -20 -20 -20 -20 -20 -20 -20 -20 -20 -20 -20 -20 -20 -20 -20 -20 -20 -20 -20 -20 -20 -20 -20 -20 -20 -20 -20 -20 -20 -20 -20 -20 -20 -20 -20
-20 -20 -20 -20 -20 -20 -20 -20 -20 -20 -20 -20 -20 -20 -20 -20 -20 -20 -20 -20 -20 -20 -20 -20 -20 -20 -20 -20 -20 -20 -20 -20 -20 -20 -20 -20 -20 -20 -20 -20 -20 -20 -20 -20 -20 -20 -20 -20 -20 -20 -20 -20 -20 -20
-20 -20 -20 -20 -20 -20 -20 -20 -20 -20 -20 -20 -20 -20 -20 -20 -20 -20 -20 -20 -20 -20 -20 -20 -20 -20 -20 -20 -20 -20 -20 -20 -20 -18 -4 1 2 -1 -10 -20 -20 -20 -20 -20 -20 -20 -20 -20 -20 -20 -20 -20 -20 -20
Wind_Speed
14 16 17 19 20 21 22 23 24 24 24 24 25 26 25 24 23 12 6 6 4 3 5 8 6 4 2 3 4 4 3 3 2 1 2 3 2 1 4 10 7 1 6 6 6 6 10 3 1 3 3 4 4 7
15 17 18 20 21 22 24 25 24 25 25 26 25 26 25 26 26 20 5 2 4 3 7 6 9 12 14 19 8 5 5 4 4 1 1 1 3 5 4 4 4 2 4 3 5 6 3 5 5 6 5 6 5 5
15 17 19 20 22 25 25 26 26 27 26 27 26 27 28 28 27 21 4 3 2 3 5 3 7 6 6 11 11 6 5 7 5 5 4 3 7 2 3 3 3 5 3 3 9 5 10 9 7 7 6 5 7 5
17 19 21 22 24 25 26 27 27 26 26 27 27 29 29 28 26 20 3 4 2 2 2 7 3 5 4 3 7 12 16 7 3 4 5 4 3 3 3 3 8 3 5 5 7 7 11 4 8 7 7 9 12 11
18 20 21 23 24 26 27 27 27 26 28 28 28 29 28 25 21 5 2 1 0 2 4 5 7 4 6 5 11 14 14 11 4 3 3 3 3 5 4 4 2 2 3 3 5 9 6 6 8 7 8 13 11 16
20 20 22 24 25 26 27 27 26 27 29 29 29 27 22 16 13 2 4 3 1 2 3 3 4 5 4 9 10 11 3 3 2 3 2 3 2 2 2 2 3 6 7 8 7 6 3 3 8 8 12 15 14 18
20 21 23 25 26 27 27 26 25 29 29 29 27 21 12 11 4 4 2 3 3 3 3 5 5 3 4 4 3 3 4 3 1 2 2 2 2 3 2 3 8 8 7 9 4 3 7 10 6 11 15 16 19 18
20 22 23 25 26 27 25 24 28 28 29 27 21 13 6 5 6 4 4 1 2 3 1 1 5 4 5 3 4 3 2 2 5 3 2 4 4 4 3 13 7 6 7 9 9 8 7 9 12 14 14 16 19 18
21 22 24 26 27 25 24 26 28 27 27 23 13 4 4 5 3 3 14 4 1 2 1 2 4 4 5 2 3 2 1 4 2 4 4 3 5 5 11 11 10 11 7 9 13 13 13 14 16 18 17 17 20 19
21 23 24 26 25 22 26 27 27 25 23 11 6 5 5 3 11 5 3 3 4 3 4 2 3 3 3 2 2 4 3 2 3 3 1 5 4 10 14 12 12 11 9 9 14 14 14 18 20 19 18 15 16 17
22 23 25 25 21 22 27 26 24 22 7 4 5 2 4 9 4 5 4 5 4 6 3 3 2 6 2 3 3 3 1 2 4 5 3 4 6 13 13 15 14 14 14 16 17 17 17 17 16 17 17 18 17 18
23 24 25 24 17 25 26 24 21 5 2 2 3 3 4 7 5 8 2 5 5 2 5 4 6 4 3 3 3 3 3 4 4 2 4 4 7 13 13 15 17 16 17 19 18 19 20 19 17 17 16 16 16 16
23 24 26 20 19 26 25 21 18 10 3 3 6 7 6 6 10 7 6 6 5 6 3 8 9 4 2 2 2 3 6 3 1 5 4 4 8 10 11 11 15 17 20 21 21 19 20 19 18 17 16 14 14 14
22 24 24 12 24 25 23 20 14 5 6 6 6 8 5 5 1 3 1 3 5 3 9 9 5 3 3 4 3 5 2 4 5 4 3 4 8 9 10 11 13 15 16 16 16 16 16 15 14 14 14 11 11 12
23 25 9 11 24 25 20 15 11 5 5 5 6 4 3 4 3 3 3 3 4 7 5 5 4 2 3 3 3 3 6 5 4 3 2 4 6 8 10 11 11 12 11 12 11 12 12 12 12 13 12 10 10 10
22 12 5 25 23 22 17 7 6 4 5 5 6 4 5 2 4 3 4 6 3 5 5 2 2 4 4 3 5 5 3 3 3 3 2 3 7 9 9 10 10 10 10 10 10 11 11 11 11 9 10 10 9 8
12 1 19 21 22 12 15 5 5 8 5 5 2 2 3 2 4 4 7 4 5 4 2 2 5 1 2 4 3 4 3 3 5 4 5 7 8 7 8 10 11 11 10 10 9 10 9 8 8 9 10 7 6 6
2 7 13 19 12 5 4 5 6 6 4 2 2 3 2 2 3 4 4 3 3 3 2 3 3 7 4 3 3 2 4 6 6 6 6 6 7 8 8 9 9 9 8 8 7 7 8 8 8 7 6 5 5 6
12 4 13 13 6 5 5 6 5 4 2 1 2 2 2 3 3 3 4 3 3 4 4 4 6 3 3 3 3 4 4 4 5 5 6 8 8 8 8 8 9 8 8 7 7 6 5 6 5 3 2 4 3 3
8 6 14 10 6 5 6 4 2 5 1 2 2 2 2 2 4 4 7 6 4 4 6 6 4 3 2 3 4 4 5 5 5 6 6 6 5 7 9 7 6 6 6 7 6 8 4 4 4 4 4 3 2 3
8 7 10 6 5 7 5 1 4 1 2 1 2 2 2 2 7 7 7 7 7 5 5 4 3 3 4 5 6 6 6 5 3 3 3 4 4 4 5 5 4 4 4 3 3 5 7 4 4 3 3 3 3 3
3 9 4 5 6 5 6 2 3 2 2 1 3 3 3 3 4 5 3 7 5 3 3 3 5 5 7 9 6 8 7 8 9 7 9 5 3 3 4 4 4 4 4 4 3 4 4 4 5 2 3 4 5 3
5 5 5 6 7 7 3 2 5 6 4 4 3 4 3 3 3 2 5 3 2 3 3 4 5 6 6 6 7 9 9 7 6 5 5 4 4 4 3 3 4 3 4 4 4 3 3 9 6 5 4 4 3 3
9 7 6 4 4 1 2 6 3 4 4 5 4 3 3 2 4 4 4 2 1 2 3 4 2 1 2 5 5 5 5 3 4 5 4 3 3 3 3 2 2 1 4 4 4 4 4 4 9 5 4 3 4 2
8 7 6 6 3 6 6 5 6 5 2 2 3 3 3 3 3 3 1 2 1 1 2 3 4 4 2 1 1 2 4 3 2 3 3 3 2 2 3 3 3 2 3 4 5 6 6 5 4 5 5 4 5 4
6 5 4 1 4 4 1 3 2 0 1 3 1 3 3 2 3 2 2 2 1 1 0 1 1 1 2 2 1 2 3 2 2 1 1 1 1 3 1 2 3 3 2 2 2 4 6 5 5 6 5 7 11 6
4 3 3 2 1 3 3 3 2 3 3 1 2 3 3 3 2 1 1 1 1 1 1 1 1 1 1 1 1 1 2 1 3 2 1 2 2 2 2 0 3 4 6 4 5 4 6 7 7 7 7 5 4 4
2 1 2 3 3 2 4 2 2 1 2 2 1 2 4 5 2 1 1 1 1 1 1 1 1 1 1 1 1 3 3 3 2 1 2 2 1 1 2 2 3 12 6 6 7 4 5 7 7 7 6 5 6 3
3 2 1 4 3 4 1 2 2 1 1 1 3 1 3 2 1 0 1 1 1 2 2 1 1 2 1 0 1 1 1 2 4 3 2 2 4 4 2 3 4 4 3 3 13 13 11 8 8 7 5 5 5 6
2 2 3 2 3 1 3 2 2 2 0 1 1 2 1 2 2 1 1 1 1 2 2 1 0 1 1 1 2 3 2 1 2 4 3 3 4 4 6 6 5 5 3 3 5 6 12 7 7 5 6 5 5 5
2 1 3 2 1 2 3 1 1 2 2 2 2 2 2 2 3 1 2 2 2 2 2 1 1 1 3 1 2 1 2 2 4 4 4 4 5 6 7 6 5 4 3 2 3 4 4 4 4 5 6 7 8 8
3 2 3 2 2 2 1 2 1 1 3 2 2 1 3 3 2 3 3 4 2 1 3 3 2 2 4 3 3 3 6 2 3 4 6 5 6 7 7 5 3 2 2 3 3 3 2 4 4 5 5 6 7 8
2 2 2 2 2 2 1 2 3 3 2 1 2 1 2 2 4 3 1 2 3 4 4 4 4 3 3 4 4 3 2 2 5 9 12 12 12 10 4 1 2 2 2 3 4 3 4 5 3 4 6 6 6 7
Wind_Direction
341 337 339 343 339 336 333 330 330 328 326 325 325 324 324 327 324 321 281 192 204 219 272 209 219 189 291 193 195 250 287 334 46 191 234 250 264 201 288 289 289 224 161 188 212 224 259 319 132 200 292 276 263 305
341 337 335 334 333 331 330 328 327 326 326 324 325 320 327 322 316 316 285 197 211 222 255 221 239 227 216 243 250 200 216 170 221 139 284 58 325 289 253 272 298 247 340 305 208 226 291 354 341 325 287 268 307 307
333 331 333 333 334 333 330 326 329 327 327 325 325 323 324 318 314 312 264 176 183 269 297 17 251 261 235 231 217 237 229 206 199 177 184 221 237 226 259 264 320 289 59 275 340 7 341 330 317 326 310 304 9 37
330 330 329 334 335 330 329 332 330 329 329 326 324 323 321 319 316 316 214 174 157 161 239 281 316 284 258 234 217 222 243 248 183 176 216 211 243 228 252 248 275 301 352 321 270 312 308 328 353 339 343 50 59 61
329 330 335 335 332 330 332 332 330 332 330 325 324 323 328 330 332 351 46 188 273 158 224 282 312 277 280 267 253 234 225 219 185 182 183 218 224 221 230 256 47 346 294 278 271 330 272 290 325 352 38 61 68 86
331 333 334 332 332 333 334 331 332 332 327 327 325 331 335 344 358 52 25 328 272 132 79 322 274 292 321 308 319 355 11 126 155 154 189 233 4 273 302 345 17 328 293 273 257 326 57 71 38 53 75 78 84 88
331 333 332 332 333 335 334 331 332 329 327 326 332 337 341 10 27 56 180 229 90 70 74 315 311 276 314 299 324 12 25 35 24 84 44 349 344 4 24 331 332 328 320 342 335 344 14 24 72 72 80 83 86 85
334 332 333 336 335 333 333 335 332 331 326 330 337 340 10 45 74 25 351 358 50 88 65 339 288 338 360 330 311 2 18 30 20 38 11 359 6 16 37 333 329 336 330 37 38 77 93 91 86 77 79 87 84 84
333 335 338 338 335 334 337 335 332 332 329 337 338 1 44 35 42 269 308 83 52 109 15 353 348 310 351 319 309 314 331 60 33 38 18 36 1 33 317 343 11 29 32 59 65 72 81 81 82 79 81 79 87 84
340 339 339 339 335 340 338 335 336 335 335 350 28 43 0 274 308 316 17 32 10 338 27 66 289 290 322 316 305 326 15 61 48 44 24 22 47 354 353 15 20 27 54 68 72 66 72 71 70 70 71 73 78 82
340 339 340 338 337 342 337 337 340 343 9 25 21 336 251 331 50 30 28 60 330 15 357 322 353 327 305 331 324 0 26 19 50 19 38 26 7 350 357 26 27 38 48 57 63 57 62 68 75 76 69 66 67 69
337 338 339 337 340 341 338 340 344 22 189 239 316 32 8 30 29 68 342 338 35 352 327 350 331 297 310 321 320 350 84 37 38 338 48 25 347 345 11 23 31 38 47 54 57 59 55 57 61 65 66 66 65 66
335 336 337 341 347 341 343 346 348 354 65 37 38 43 35 320 36 56 350 330 341 339 351 330 324 292 314 4 333 14 66 70 45 40 47 15 336 359 16 28 37 33 38 42 45 48 51 52 48 52 58 54 63 65
332 336 342 348 343 344 348 351 360 35 60 66 56 19 73 356 15 249 239 259 263 288 309 311 286 334 353 345 351 68 30 65 61 47 28 352 350 7 24 32 42 42 43 47 47 49 51 53 53 51 53 52 61 62
333 338 354 339 343 346 352 357 17 42 71 64 56 21 343 240 248 246 261 292 286 283 288 299 276 314 341 44 18 51 40 60 54 50 44 4 6 25 35 38 44 48 48 49 44 49 51 54 55 52 42 46 53 60
340 348 339 341 339 348 355 14 30 69 48 65 51 15 293 359 305 333 310 309 294 325 296 237 333 39 22 41 42 28 78 72 94 68 65 33 32 35 40 45 49 48 48 50 46 50 48 48 51 54 47 41 43 52
355 325 323 335 343 2 17 63 48 45 103 46 322 239 241 270 259 300 306 285 314 298 305 59 51 19 323 54 51 14 34 90 102 84 69 58 50 41 43 53 53 50 46 44 45 43 46 41 48 49 46 23 33 40
241 295 333 349 358 18 37 37 78 70 51 267 57 296 303 272 287 323 294 290 310 340 40 58 57 38 35 39 44 65 73 72 66 71 63 51 52 53 55 62 57 52 52 47 45 42 39 36 40 34 27 13 33 29
324 341 352 8 43 81 66 12 56 106 234 273 321 308 300 316 345 294 316 345 52 41 77 45 53 35 24 6 51 83 83 90 95 80 62 42 42 48 50 50 49 42 38 30 34 35 31 34 32 6 7 25 26 345
7 23 6 35 51 73 49 353 60 90 112 295 349 320 306 20 353 353 19 30 38 54 47 46 26 10 356 338 15 59 95 111 111 96 72 49 38 46 45 39 37 33 33 23 19 44 20 9 6 5 354 14 18 335
13 343 18 44 42 63 91 4 32 104 279 56 284 333 356 335 26 19 16 360 44 34 61 25 20 30 27 40 35 46 47 57 59 64 102 93 54 57 52 36 29 45 43 20 16 356 19 356 326 346 348 326 318 303
319 10 48 19 68 20 75 315 143 266 64 303 21 339 25 10 3 23 4 35 50 20 12 7 16 29 47 40 29 33 45 59 55 66 63 76 62 49 46 34 29 20 18 13 1 350 334 316 314 15 342 320 346 322
26 39 39 28 63 43 276 44 62 355 67 324 9 33 21 8 3 347 63 48 60 6 356 30 47 48 62 47 54 44 33 53 60 51 56 58 49 45 52 37 25 16 4 356 340 312 315 349 331 356 343 346 338 344
32 51 51 49 58 242 7 17 29 35 36 27 41 21 355 322 327 56 71 54 56 10 29 32 17 70 50 40 43 35 15 13 63 57 27 44 57 26 12 21 10 355 8 333 334 329 329 326 349 334 328 327 325 319
64 337 59 348 329 48 32 12 351 42 49 332 59 354 332 339 66 63 104 162 119 44 30 28 58 58 88 66 53 40 30 22 45 65 11 38 38 1 9 357 357 343 347 347 347 336 327 324 328 327 324 315 304 305
70 309 66 268 320 82 187 56 34 255 91 26 288 276 350 72 71 173 199 161 148 167 140 71 63 78 57 45 37 4 354 2 19 104 276 140 142 122 66 359 323 302 329 301 299 309 312 308 309 315 310 317 328 342
63 324 329 21 128 98 66 41 43 93 74 85 295 11 51 75 225 222 110 39 103 100 45 36 36 80 86 345 331 333 309 230 224 215 229 245 232 197 142 145 306 287 303 327 309 301 309 317 311 310 301 294 284 281
137 50 68 306 52 13 122 63 74 123 240 253 81 21 160 188 183 97 70 90 103 86 74 59 40 39 259 246 305 323 322 325 318 308 323 308 227 220 230 276 288 326 341 320 329 314 300 298 300 315 317 310 305 281
48 358 113 21 14 37 85 139 195 252 0 125 136 231 245 243 233 164 115 90 99 101 96 114 316 6 30 53 216 252 306 24 87 57 48 313 339 307 289 297 293 294 290 279 331 344 329 335 346 336 336 321 312 307
353 352 85 65 82 0 257 170 220 246 241 158 247 351 329 305 257 214 170 141 164 173 192 174 244 91 133 102 324 334 309 10 89 122 146 243 243 278 301 292 291 290 286 296 313 322 342 353 339 346 344 336 339 335
326 35 71 67 138 253 230 239 349 50 37 25 356 140 230 286 297 224 169 169 126 110 102 56 345 207 141 165 148 72 340 281 219 233 231 244 259 267 271 271 271 272 274 300 318 323 329 330 330 333 335 338 335 349
16 69 117 70 302 290 68 67 31 52 336 37 308 349 351 35 288 269 197 122 98 153 228 156 149 251 214 224 228 231 252 230 228 234 256 264 267 265 268 268 259 263 315 314 314 300 308 319 314 329 325 328 333 334
24 32 44 73 26 344 328 75 9 338 25 13 297 246 222 189 231 260 285 183 172 185 191 208 222 237 231 214 216 243 275 228 260 309 320 314 320 329 336 116 294 312 320 310 311 322 325 323 312 322 331 332 328 327